GOES 16

Last updated on Wed Sep 09 2026 00:02:41 GMT+0000 (Coordinated Universal Time)

1 41866U 16071A 26251.49561550 -.00000112 00000+0 00000+0 0 9994 2 41866 0.5406 84.6385 0001761 133.6821 202.9787 1.00272055 35932
UTC large
Height (km)
Speed (km/s)
/
Latitude / Longitude
Inclination (degrees)
Orbital Period (minutes)
Azimuth
Elevation
Range (km)
Doppler Factor

Next 0 passes for location: London (51.5072 / 0.1276)

No passes found over London.
GOES 16